[[{"header":{"parameterUnit":"m.s-1","parameterCategory":1,"la1":30.2992,"la2":30.254,"lo1":-89.0895,"lo2":-89.0443,"dy":0.0025,"dx":0.0025,"nx":19,"ny":19,"refTime":"2026-04-12T03:00:00:Z","depth":0,"parameterNumber":2,"parameterNumberName":"U-component_of_WINDS"},"data":[0,0,0,-4.3971,-4.3975,-4.4119,-4.4119,-4.4317,-4.4319,0,0,0,0,0,0,0,0,0,0,0,-4.3936,-4.3938,-4.3971,-4.3975,-4.4119,-4.4119,-4.4317,-4.4319,0,0,0,0,0,0,0,0,0,0,0,-4.3936,-4.3938,-4.394,-4.3976,-4.4119,-4.412,-4.4316,-4.4203,0,0,0,0,0,0,0,0,0,0,-4.4061,-4.4036,-4.3937,-4.394,-4.3976,-4.4119,-4.412,-4.4197,-4.421,-4.4258,0,-4.4302,0,-4.4314,-4.4333,-4.4334,0,0,0,-4.3969,-4.4025,-4.4057,-4.394,-4.3978,-4.4118,-4.4052,-4.4204,-4.4219,-4.4275,-4.4304,-4.4311,-4.4317,-4.4335,-4.4336,-4.4628,-4.463,0,0,-4.3961,-4.3967,-4.4047,-4.4067,-4.4045,-4.4048,-4.4057,-4.4213,-4.4246,-4.4305,-4.4316,-4.432,-4.4336,-4.4338,-4.4627,-4.4629,0,0,0,-4.3942,-4.3961,-4.3989,-4.4059,-4.4084,-4.4052,-4.4063,-4.4239,-4.4247,-4.4318,-4.4322,-4.4337,-4.434,-4.4625,-4.4627,-4.4713,0,0,0,-4.3937,-4.395,-4.3986,-4.3991,-4.4082,-4.4163,-4.4085,-4.4236,-4.4254,-4.4321,-4.4337,-4.4342,-4.4623,-4.4626,-4.4706,-4.4752,0,0,0,-4.3924,-4.3949,-4.3972,-4.3991,-4.4053,-4.4161,-4.4178,-4.424,-4.4257,-4.4334,-4.4342,-4.4622,-4.4626,-4.4701,-4.4742,-4.4829,0,0,0,-4.3912,-4.4046,-4.3974,-4.4125,-4.4052,-4.4213,-4.4177,-4.4296,-4.4373,-4.4338,-4.4623,-4.4627,-4.4699,-4.4737,-4.4823,-4.4903,-4.4936,0,0,-4.4084,-4.4067,-4.4156,-4.4095,-4.427,-4.419,-4.4378,-4.4443,-4.4446,-4.4567,-4.4574,-4.4708,-4.4742,-4.4828,-4.5126,-4.5153,0,0,0,-4.4212,-4.4276,-4.4321,-4.4394,-4.4447,-4.4496,-4.4531,-4.4555,-4.4658,-4.4509,-4.4764,-4.4784,-4.4834,-4.4871,-4.4894,-4.4937,-4.4645,-4.4645,-4.4644,-4.4462,-4.4459,-4.4605,-4.4619,-4.469,-4.4726,-4.4783,-4.4822,-4.4797,-4.4858,-4.4893,-4.5075,-4.5119,-4.5136,-4.518,-4.4936,-4.4936,-4.4937,-4.4937,-4.4713,-4.4802,-4.4767,-4.4896,-4.4892,-4.5,-4.5041,-4.502,-4.5121,-4.5047,-4.5092,-4.5011,-4.5165,-4.5204,-4.4943,-4.4942,-4.4941,-4.4941,-4.494,-4.4875,-4.4917,-4.4944,-4.5049,-4.5131,-4.514,-4.5239,-4.5232,-4.5226,-4.527,-4.5306,-4.5305,-4.5301,-4.5288,-4.5289,-4.5289,-4.529,-4.529,-4.5291,-4.5031,-4.506,-4.5143,-4.5211,-4.5257,-4.5316,-4.5355,-4.54,-4.5448,-4.5435,-4.5435,-4.5404,-4.5182,-4.5125,-4.53,-4.5298,-4.5297,-4.5296,-4.5296,-4.5284,-4.5226,-4.5355,-4.5401,-4.548,-4.5561,-4.5552,-4.5644,-4.5681,-4.573,-4.569,-4.5527,-4.5509,-4.5491,-4.5444,-4.5691,-4.5691,-4.5691,-4.5691,-4.542,-4.541,-4.554,-4.5614,-4.5686,-4.5691,-4.5837,-4.5868,-4.5892,-4.5914,-4.5878,-4.5816,-4.5797,-4.579,-4.5765,-4.5721,-4.6033,-4.6034,-4.6034,-4.5575,-4.5572,-4.5697,-4.5719,-4.578,-4.5834,-4.5971,-4.6058,-4.6073,-4.6048,-4.5931,-4.5917,-4.5816,-4.5784,-4.5754,-4.5716,-4.5635,0,0]},{"header":{"parameterUnit":"m.s-1","parameterCategory":1,"la1":30.2992,"la2":30.254,"lo1":-89.0895,"lo2":-89.0443,"dy":0.0025,"dx":0.0025,"nx":19,"ny":19,"refTime":"2026-04-12T03:00:00:Z","depth":0,"parameterNumber":3,"parameterNumberName":"V-component_of_WINDS"},"data":[0,0,0,3.4288,3.4291,3.4398,3.4398,3.4535,3.4537,0,0,0,0,0,0,0,0,0,0,0,3.4258,3.4259,3.4288,3.4291,3.4398,3.4398,3.4535,3.4537,0,0,0,0,0,0,0,0,0,0,0,3.4258,3.4259,3.426,3.4291,3.4398,3.4398,3.4535,3.4454,0,0,0,0,0,0,0,0,0,0,3.435,3.4323,3.4259,3.426,3.4292,3.4398,3.4398,3.445,3.4459,3.4488,0,3.4515,0,3.4528,3.4546,3.4546,0,0,0,3.4289,3.4316,3.4344,3.426,3.4293,3.4397,3.4349,3.4455,3.4465,3.45,3.4517,3.4522,3.453,3.4547,3.4548,3.4724,3.4725,0,0,3.4283,3.4278,3.4337,3.435,3.4335,3.4346,3.4352,3.4461,3.4478,3.4517,3.4525,3.4533,3.4548,3.4549,3.4723,3.4724,0,0,0,3.4268,3.4273,3.4299,3.4345,3.4364,3.4349,3.4357,3.4474,3.4482,3.4526,3.4534,3.4549,3.455,3.4722,3.4724,3.4764,0,0,0,3.4264,3.4264,3.4296,3.4294,3.4362,3.442,3.4367,3.4475,3.4487,3.4534,3.4549,3.4552,3.4721,3.4723,3.4761,3.4783,0,0,0,3.4251,3.4263,3.4279,3.4293,3.4339,3.4419,3.4434,3.4478,3.4492,3.4547,3.4552,3.4721,3.4723,3.4758,3.4779,3.483,0,0,0,3.4234,3.4311,3.4279,3.4369,3.4338,3.4444,3.4433,3.4511,3.4563,3.4549,3.4721,3.4724,3.4757,3.4776,3.4826,3.4871,3.489,0,0,3.4328,3.4322,3.4375,3.435,3.446,3.4428,3.4543,3.4594,3.4603,3.4683,3.4687,3.4762,3.4778,3.4829,3.4993,3.5008,0,0,0,3.4403,3.4441,3.4471,3.4521,3.4564,3.4603,3.4637,3.4657,3.4725,3.4644,3.4794,3.4804,3.4834,3.4855,3.4868,3.4894,3.4733,3.4733,3.4733,3.4526,3.4536,3.4625,3.4649,3.4698,3.4735,3.4775,3.4807,3.4801,3.4836,3.486,3.4959,3.4984,3.4993,3.5021,3.4884,3.4884,3.4885,3.4885,3.4664,3.472,3.4714,3.4798,3.4809,3.4879,3.4918,3.4912,3.4978,3.4941,3.4968,3.4926,3.5009,3.5033,3.4888,3.4887,3.4887,3.4887,3.4886,3.4746,3.4775,3.4799,3.4875,3.4931,3.4953,3.5018,3.5024,3.5031,3.5057,3.5084,3.5083,3.5084,3.507,3.507,3.507,3.5071,3.5071,3.5071,3.4821,3.4848,3.4903,3.4958,3.4992,3.5038,3.5077,3.5111,3.5149,3.5149,3.5149,3.514,3.5015,3.4984,3.5076,3.5075,3.5075,3.5074,3.5074,3.4958,3.4929,3.5014,3.5049,3.5115,3.5172,3.518,3.5249,3.5277,3.531,3.5296,3.5203,3.5196,3.5186,3.5161,3.5293,3.5293,3.5293,3.5293,3.5027,3.5026,3.5116,3.5172,3.5227,3.5244,3.5341,3.5373,3.5401,3.542,3.5401,3.5368,3.5358,3.5357,3.5344,3.532,3.549,3.549,3.549,3.5112,3.5117,3.5198,3.5228,3.528,3.5325,3.5416,3.548,3.5506,3.5499,3.5434,3.5426,3.5372,3.5353,3.5344,3.5323,3.5279,0,0]}]]